Flag for U.S.A. Weather past 2 weeks in Berkeley, California, U.S.A.

Now
43 °F

Passing clouds.


Feels Like: 41 °F
Forecast: 41 / 54 °F
Wind: 3 mph from East

Location: Metro Oakland International Airport

Current Time: Dec 27, 2014 at 10:48:12 PM

Latest Report: Dec 27, 2014 at 9:53 PM


Visibility: 10 mi

Pressure: 30.37 "Hg

Humidity: 76%

Dew point: 36 °F

Location of BerkeleyLocation

Historic Weather in Berkeley — Graph

°F

Berkeley temperature yesterday

Maximum temperature yesterday: 59 °F (at 12:53 PM)
Minimum temperature yesterday: 39 °F (at 11:53 PM)
Average temperature yesterday: 49 °F

Past Weeks' High & Low Weather Summary

 TemperatureHumidityPressure
High64 °F (Dec 23, 2:53 PM)100% (Dec 22, 4:53 AM)30.38 "Hg (Dec 22, 4:53 AM)
Low39 °F (Dec 26, 11:53 PM)30% (Dec 25, 3:53 PM)29.83 "Hg (Dec 16, 3:53 PM)
Average53 °F80%30.12 "Hg
* Reported Dec 12 9:53 PM — Dec 27 9:53 PM, Berkeley, Weather by CustomWeather, © 2014

Note: Actual official high and low records may vary slightly from our data, if they occured in-between our weather recording intervals... More about our weather records

Advertising

Berkeley weather history for previous 24 hours

 ConditionsComfort  
Time TempWeatherWind HumidityBarometerVisibility
9:53 PM
Dec 27
43 °FPassing clouds.3 mph76%30.37 "Hg10 mi
8:53 PM45 °FPassing clouds.3 mph74%30.38 "Hg10 mi
7:53 PM47 °FPassing clouds.No wind71%30.38 "Hg10 mi
6:53 PM46 °FPassing clouds.5 mph68%30.36 "Hg10 mi
5:53 PM50 °FPassing clouds.5 mph57%30.36 "Hg10 mi
4:53 PM51 °FPartly sunny.3 mph59%30.34 "Hg10 mi
3:53 PM53 °FPartly sunny.3 mph52%30.33 "Hg10 mi
2:53 PM52 °FPartly sunny.3 mph49%30.33 "Hg10 mi
1:53 PM52 °FPartly sunny.5 mph55%30.34 "Hg10 mi
12:53 PM53 °FPartly sunny.6 mph48%30.34 "Hg10 mi
11:53 AM54 °FScattered clouds.5 mph41%30.35 "Hg10 mi
10:53 AM54 °FScattered clouds.9 mph41%30.38 "Hg10 mi
9:53 AM50 °FScattered clouds.10 mph50%30.38 "Hg10 mi
8:53 AM47 °FScattered clouds.6 mph56%30.35 "Hg10 mi
7:53 AM42 °FScattered clouds.10 mph68%30.32 "Hg10 mi
6:53 AM40 °FPassing clouds.3 mph77%30.30 "Hg10 mi
5:53 AM42 °FPassing clouds.3 mph65%30.29 "Hg10 mi
4:53 AM45 °FClear.No wind58%30.28 "Hg10 mi
3:53 AM42 °FClear.No wind65%30.28 "Hg10 mi
2:53 AM41 °FClear.9 mph67%30.29 "Hg10 mi
1:53 AM40 °FClear.3 mph73%30.28 "Hg10 mi
12:53 AM39 °FClear.6 mph76%30.27 "Hg10 mi
11:53 PM
Dec 26
39 °FClear.5 mph76%30.27 "Hg10 mi
10:53 PM41 °FClear.3 mph67%30.25 "Hg10 mi
Weather by CustomWeather, © 2014

See weather overviewHow to use our weather pages